Time,TemperatureF,DewpointF,PressureIn,WindDirection,WindDirectionDegrees,WindSpeedMPH,WindSpeedGustMPH,Humidity,HourlyPrecipIn,Conditions,Clouds,dailyrainin,SoftwareType,DateUTC
2013-06-11 00:00:00,76.6,72.1,29.65,ESE,112,0.0,0.0,86,0.00,,,0.00,WeatherDisplay:10.37,2013-06-11 04:00:00,
2013-06-11 00:30:00,76.5,72.0,29.64,ESE,112,0.0,0.0,86,0.00,,,0.00,WeatherDisplay:10.37,2013-06-11 04:30:00,
2013-06-11 01:00:00,76.3,71.8,29.64,East,100,0.0,0.0,86,0.00,,,0.00,WeatherDisplay:10.37,2013-06-11 05:00:00,
2013-06-11 01:30:00,76.3,72.1,29.64,East,86,0.0,0.0,87,0.00,,,0.00,WeatherDisplay:10.37,2013-06-11 05:30:00,
2013-06-11 02:00:00,76.3,72.5,29.63,ENE,68,0.0,0.0,88,0.00,,,0.00,WeatherDisplay:10.37,2013-06-11 06:00:00,
2013-06-11 02:30:00,76.3,72.5,29.63,ENE,68,0.0,0.0,88,0.00,,,0.00,WeatherDisplay:10.37,2013-06-11 06:30:00,
2013-06-11 03:00:00,76.1,72.6,29.62,ENE,68,0.0,0.0,89,0.00,,,0.00,WeatherDisplay:10.37,2013-06-11 07:00:00,
2013-06-11 03:30:00,75.7,72.3,29.61,ESE,112,0.0,0.0,89,0.00,,,0.00,WeatherDisplay:10.37,2013-06-11 07:30:00,
2013-06-11 04:00:00,75.6,72.4,29.61,ESE,112,0.0,0.0,90,0.00,,,0.00,WeatherDisplay:10.37,2013-06-11 08:00:00,
2013-06-11 04:30:00,75.7,72.6,29.62,ESE,112,0.0,0.0,90,0.00,,,0.00,WeatherDisplay:10.37,2013-06-11 08:30:00,
2013-06-11 05:00:00,75.7,72.6,29.61,ESE,112,0.0,0.0,90,0.00,,,0.00,WeatherDisplay:10.37,2013-06-11 09:00:00,
2013-06-11 05:30:00,75.6,72.4,29.61,ESE,112,0.0,0.0,90,0.00,,,0.00,WeatherDisplay:10.37,2013-06-11 09:30:00,
2013-06-11 06:00:00,75.4,72.2,29.62,ESE,112,0.0,0.0,90,0.00,,,0.00,WeatherDisplay:10.37,2013-06-11 10:00:00,
2013-06-11 06:30:00,75.4,72.2,29.63,ENE,68,0.0,0.0,90,0.00,,,0.00,WeatherDisplay:10.37,2013-06-11 10:30:00,
2013-06-11 07:00:00,75.7,72.6,29.64,ENE,68,0.0,0.0,90,0.00,,,0.00,WeatherDisplay:10.37,2013-06-11 11:00:00,
2013-06-11 07:30:00,76.6,73.5,29.64,ENE,68,0.0,0.0,90,0.00,,,0.00,WeatherDisplay:10.37,2013-06-11 11:30:00,
2013-06-11 08:00:00,78.1,74.9,29.65,ESE,103,0.0,0.0,90,0.00,,,0.00,WeatherDisplay:10.37,2013-06-11 12:00:00,
2013-06-11 08:30:00,79.9,76.3,29.66,ESE,116,0.0,0.0,89,0.00,,,0.00,WeatherDisplay:10.37,2013-06-11 12:30:00,
2013-06-11 09:00:00,80.4,75.8,29.66,SSE,148,0.0,1.0,86,0.00,,,0.00,WeatherDisplay:10.37,2013-06-11 13:00:00,
2013-06-11 09:30:00,82.0,77.1,29.66,SE,137,0.0,4.0,85,0.00,,,0.00,WeatherDisplay:10.37,2013-06-11 13:30:00,
2013-06-11 10:00:00,83.5,77.4,29.65,SE,137,0.0,0.0,82,0.00,CLR,CLR,0.00,WeatherDisplay:10.37,2013-06-11 14:00:00,
2013-06-11 10:30:00,85.1,77.1,29.66,South,187,0.0,0.0,77,0.00,CLR,CLR,0.00,WeatherDisplay:10.37,2013-06-11 14:30:00,
2013-06-11 11:00:00,86.7,77.8,29.66,ESE,122,2.0,3.0,75,0.00,CLR,CLR,0.00,WeatherDisplay:10.37,2013-06-11 15:00:00,
2013-06-11 11:30:00,86.2,76.5,29.65,ESE,123,0.0,3.0,73,0.00,CLR,CLR,0.00,WeatherDisplay:10.37,2013-06-11 15:30:00,
2013-06-11 12:00:00,87.6,76.6,29.65,NNE,18,0.0,3.0,70,0.00,CLR,CLR,0.00,WeatherDisplay:10.37,2013-06-11 16:00:00,
2013-06-11 12:30:00,87.4,76.0,29.66,NE,36,0.0,2.0,69,0.00,CLR,CLR,0.00,WeatherDisplay:10.37,2013-06-11 16:30:00,
2013-06-11 13:00:00,89.4,76.6,29.65,East,101,0.0,0.0,66,0.00,CLR,CLR,0.00,WeatherDisplay:10.37,2013-06-11 17:00:00,
2013-06-11 13:30:00,85.1,76.7,29.65,WSW,239,0.0,1.0,76,0.00,CLR,CLR,0.00,WeatherDisplay:10.37,2013-06-11 17:30:00,
2013-06-11 14:00:00,82.2,76.9,29.65,NNW,345,0.0,1.0,84,0.00,CLR,CLR,0.00,WeatherDisplay:10.37,2013-06-11 18:00:00,
2013-06-11 14:30:00,81.7,76.4,29.64,NW,315,0.0,0.0,84,0.00,CLR,CLR,0.00,WeatherDisplay:10.37,2013-06-11 18:30:00,
2013-06-11 15:00:00,85.6,78.4,29.64,NNW,330,0.0,6.0,79,0.00,CLR,CLR,0.00,WeatherDisplay:10.37,2013-06-11 19:00:00,
2013-06-11 15:30:00,88.0,77.8,29.63,North,350,0.0,8.0,72,0.00,CLR,CLR,0.00,WeatherDisplay:10.37,2013-06-11 19:30:00,
2013-06-11 16:00:00,87.4,76.9,29.62,North,349,1.0,11.0,71,0.00,CLR,CLR,0.00,WeatherDisplay:10.37,2013-06-11 20:00:00,
2013-06-11 16:30:00,87.8,77.2,29.60,NW,323,2.0,7.0,71,0.00,CLR,CLR,0.00,WeatherDisplay:10.37,2013-06-11 20:30:00,
2013-06-11 17:00:00,88.9,76.5,29.58,NNW,329,0.0,5.0,67,0.00,CLR,CLR,0.00,WeatherDisplay:10.37,2013-06-11 21:00:00,
2013-06-11 17:30:00,91.8,76.9,29.58,NNW,348,0.0,7.0,62,0.00,CLR,CLR,0.00,WeatherDisplay:10.37,2013-06-11 21:30:00,
2013-06-11 18:00:00,88.9,75.1,29.60,North,4,5.0,9.0,64,0.00,CLR,CLR,0.00,WeatherDisplay:10.37,2013-06-11 22:00:00,
2013-06-11 18:30:00,88.0,75.2,29.60,NNE,17,0.0,10.0,66,0.00,CLR,CLR,0.00,WeatherDisplay:10.37,2013-06-11 22:30:00,
2013-06-11 19:00:00,86.7,75.3,29.61,ENE,64,3.0,10.0,69,0.00,CLR,CLR,0.00,WeatherDisplay:10.37,2013-06-11 23:00:00,
2013-06-11 19:30:00,84.4,74.4,29.62,East,80,5.0,7.0,72,0.00,CLR,CLR,0.00,WeatherDisplay:10.37,2013-06-11 23:30:00,
2013-06-11 20:00:00,83.8,73.4,29.63,ENE,72,1.0,2.0,71,0.00,CLR,CLR,0.00,WeatherDisplay:10.37,2013-06-12 00:00:00,
2013-06-11 20:30:00,82.6,73.4,29.62,SE,131,0.0,5.0,74,0.00,CLR,CLR,0.00,WeatherDisplay:10.37,2013-06-12 00:30:00,
2013-06-11 21:00:00,80.6,71.5,29.61,South,172,0.0,5.0,74,0.00,CLR,CLR,0.00,WeatherDisplay:10.37,2013-06-12 01:00:00,
2013-06-11 21:30:00,79.2,69.8,29.59,South,180,0.0,1.0,73,0.00,CLR,CLR,0.00,WeatherDisplay:10.37,2013-06-12 01:30:00,
2013-06-11 22:00:00,78.6,70.0,29.58,SSW,202,0.0,0.0,75,0.00,CLR,CLR,0.00,WeatherDisplay:10.37,2013-06-12 02:00:00,
2013-06-11 22:30:00,78.4,70.6,29.60,SE,139,0.0,0.0,77,0.00,CLR,CLR,0.00,WeatherDisplay:10.37,2013-06-12 02:30:00,
2013-06-11 23:00:00,77.5,70.5,29.63,East,101,0.0,0.0,79,0.00,CLR,CLR,0.00,WeatherDisplay:10.37,2013-06-12 03:00:00,
2013-06-11 23:30:00,77.2,70.9,29.63,ESE,112,0.0,0.0,81,0.00,CLR,CLR,0.00,WeatherDisplay:10.37,2013-06-12 03:30:00,